User: anonymous   Login
Location: Unspecified
(0.0000°N, 0.0000°E)
Time: 08:06:23
(UTC+00:00)
Language:

Symphonie 1 - Orbit

View from above orbital plane
View from above orbital plane
View from above satellite
View from above satellite

Ground track
Ground track

The orbit data is extracted from the following two-line orbital elements,

1  7578U 74101A   18201.06724534 -.00000100 +00000-0 +00000-0 0  9995
2  7578 011.3672 313.3499 0001396 276.8924 088.8885 00.99962916088325
Epoch (UTC): 20 July 2018 01:36:49
Eccentricity: 0.0001396
inclination: 11.3672°
perigee height: 35867 km
apogee height: 35879 km
right ascension of ascending node: 313.3499°
argument of perigee: 276.8924°
revolutions per day: 0.99962916
mean anomaly at epoch: 88.8885°
orbit number at epoch: 8832

The dashed part of the orbit path shows where the satellite is in the earth's shadow,  

DLR